WXM80 ListenWXM80 Stop

You find our weather info also at:

UK Metoffice

WeatherCloud

Weather Underground

Northeastern Weather Network

AWEKAS

Citizen Weather Observer Program (CWOP)

HAMweather, WeatherForYou, PWS Weather


Weather Underground History page Text

Daily Summary for March 3, 2018 Units:  Metric    English   Both
« Previous Day
Next Day »
Daily Weekly Monthly Yearly Custom
  High: Low: Average:
Temperature: 8.4 °C 2.9 °C 4.8 °C
Dew Point: 3.3 °C -0.1 °C 1 °C
Humidity: 84 % 68 % 76 %
Wind Speed: 24.9 km/h 4.8 km/h 12.6 km/h
Wind Gust: 42.6 km/h - -
Wind:- - SW
Pressure: 1010 hPa 997.9 hPa -
Precipitation: 0 mm    
Historical Graphs
 
 
Tabular Data for March 3, 2018
Time Temperature Dew Point Pressure Wind Wind Speed Wind Gust Humidity Rainfall Rate (Hourly)
00:02 3.1 °C 0.6 °C 997.9 hPa North 10 km/h 25.7 km/h 84 % 0 mm
00:07 3.1 °C 0.6 °C 997.9 hPa North 14.5 km/h 35.2 km/h 84 % 0 mm
00:12 3.1 °C 0.4 °C 997.9 hPa NNE 24.9 km/h 31.5 km/h 83 % 0 mm
00:18 3.1 °C 0.6 °C 998.2 hPa North 19.3 km/h 20.4 km/h 84 % 0 mm
00:23 3.1 °C 0.4 °C 997.9 hPa NNW 13 km/h 27.8 km/h 83 % 0 mm
00:28 3.1 °C 0.4 °C 998.2 hPa NNW 16.6 km/h 27.8 km/h 83 % 0 mm
00:33 3.1 °C 0.4 °C 998.2 hPa North 12.4 km/h 25.9 km/h 83 % 0 mm
00:38 3.1 °C 0.4 °C 998.2 hPa North 23.8 km/h 42.6 km/h 83 % 0 mm
00:43 3.1 °C 0.4 °C 998.2 hPa NNW 15.8 km/h 25.9 km/h 83 % 0 mm
00:48 3.1 °C 0.4 °C 998.5 hPa NW 11.7 km/h 27.8 km/h 83 % 0 mm
00:53 3.1 °C 0.4 °C 998.5 hPa NNW 16.3 km/h 33.3 km/h 83 % 0 mm
00:58 3.1 °C 0.4 °C 998.5 hPa NNE 16.4 km/h 31.5 km/h 83 % 0 mm
01:03 3.1 °C 0.4 °C 998.5 hPa North 13 km/h 19.3 km/h 83 % 0 mm
01:08 3 °C 0.4 °C 998.5 hPa NNW 15.1 km/h 25.9 km/h 83 % 0 mm
01:13 3 °C 0.4 °C 998.5 hPa North 12.9 km/h 27.4 km/h 83 % 0 mm
01:18 3 °C 0.4 °C 998.5 hPa NNE 9.2 km/h 29.6 km/h 83 % 0 mm
01:23 3 °C 0.4 °C 998.5 hPa NNW 12.9 km/h 31.5 km/h 83 % 0 mm
01:28 3 °C 0.4 °C 998.5 hPa North 11.1 km/h 31.5 km/h 83 % 0 mm
01:33 3 °C 0.4 °C 998.9 hPa North 12.2 km/h 18.5 km/h 83 % 0 mm
01:38 3 °C 0.4 °C 998.5 hPa NNW 10.9 km/h 22.2 km/h 83 % 0 mm
01:43 3 °C 0.4 °C 998.5 hPa North 16.4 km/h 31.5 km/h 83 % 0 mm
01:48 3 °C 0.4 °C 998.5 hPa NW 10.3 km/h 20.9 km/h 83 % 0 mm
01:54 3 °C 0.4 °C 998.5 hPa NNE 12.7 km/h 20.4 km/h 83 % 0 mm
01:59 3 °C 0.4 °C 998.5 hPa NNW 13.5 km/h 24.1 km/h 83 % 0 mm
02:04 3 °C 0.4 °C 998.5 hPa North 15.6 km/h 24.1 km/h 83 % 0 mm
02:09 3.1 °C 0.3 °C 998.5 hPa NNW 12.7 km/h 20.4 km/h 82 % 0 mm
02:14 3.1 °C 0.3 °C 998.9 hPa North 14.2 km/h 20.4 km/h 82 % 0 mm
02:19 3.1 °C 0.3 °C 998.5 hPa North 14.6 km/h 27.8 km/h 82 % 0 mm
02:24 3.1 °C 0.3 °C 998.5 hPa North 13 km/h 22.5 km/h 82 % 0 mm
02:29 3.1 °C 0.4 °C 998.9 hPa NW 8 km/h 14.8 km/h 83 % 0 mm
02:34 3.1 °C 0.3 °C 998.9 hPa North 14.6 km/h 29.6 km/h 82 % 0 mm
02:39 3.1 °C 0.3 °C 998.9 hPa NNW 10.9 km/h 22.5 km/h 82 % 0 mm
02:44 3.1 °C 0.3 °C 999.2 hPa North 8.5 km/h 18.5 km/h 82 % 0 mm
02:49 3.1 °C 0.3 °C 999.2 hPa NW 14.3 km/h 22.2 km/h 82 % 0 mm
02:54 3.1 °C 0.3 °C 999.2 hPa North 14.6 km/h 29.6 km/h 82 % 0 mm
02:59 3.1 °C 0.3 °C 999.2 hPa NNW 9.3 km/h 18.5 km/h 82 % 0 mm
03:04 3 °C 0.2 °C 999.2 hPa North 10.6 km/h 22.2 km/h 82 % 0 mm
03:09 3 °C 0.2 °C 999.2 hPa North 9.8 km/h 18.5 km/h 82 % 0 mm
03:11 3 °C 0.4 °C 999.2 hPa North 7.1 km/h 16.7 km/h 83 % 0 mm
03:16 3 °C 0.4 °C 999.5 hPa NW 9.2 km/h 22.2 km/h 83 % 0 mm
03:21 3 °C 0.4 °C 999.2 hPa NNW 11.7 km/h 18.5 km/h 83 % 0 mm
03:26 3 °C 0.4 °C 999.5 hPa NNW 9.7 km/h 14.8 km/h 83 % 0 mm
03:32 3 °C 0.4 °C 999.9 hPa NNW 10.9 km/h 16.7 km/h 83 % 0 mm
03:37 2.9 °C 0.3 °C 999.5 hPa NNE 12.4 km/h 25.9 km/h 83 % 0 mm
03:42 3 °C 0.2 °C 999.5 hPa NW 14.3 km/h 31.5 km/h 82 % 0 mm
03:47 3 °C 0.2 °C 999.5 hPa NNW 10.8 km/h 18.5 km/h 82 % 0 mm
03:52 2.9 °C 0.2 °C 999.9 hPa NNW 13.4 km/h 18.5 km/h 82 % 0 mm
03:57 2.9 °C 0.3 °C 999.5 hPa North 10.9 km/h 20.4 km/h 83 % 0 mm
04:02 2.9 °C 0.2 °C 999.5 hPa NNW 11.4 km/h 20.4 km/h 82 % 0 mm
04:07 2.9 °C 0.2 °C 1000.2 hPa NNW 11.9 km/h 25.9 km/h 82 % 0 mm
04:13 3 °C 0.2 °C 999.9 hPa North 9 km/h 19.3 km/h 82 % 0 mm
04:18 3 °C 0.2 °C 1000.2 hPa WNW 13.2 km/h 18.5 km/h 82 % 0 mm
04:23 3 °C 0.1 °C 1000.2 hPa NNW 12.6 km/h 24.1 km/h 81 % 0 mm
04:28 3 °C 0.2 °C 1000.6 hPa North 13.4 km/h 20.4 km/h 82 % 0 mm
04:33 3 °C 0.1 °C 1000.6 hPa North 12.2 km/h 19.3 km/h 81 % 0 mm
04:38 3 °C 0.2 °C 1000.6 hPa WNW 13.4 km/h 20.4 km/h 82 % 0 mm
04:43 3 °C 0.2 °C 1000.6 hPa NW 10 km/h 14.8 km/h 82 % 0 mm
04:48 3.1 °C 0.3 °C 1000.6 hPa NNW 9.5 km/h 16.7 km/h 82 % 0 mm
04:53 3.1 °C 0.3 °C 1000.9 hPa North 10.8 km/h 19.3 km/h 82 % 0 mm
04:58 3.1 °C 0.3 °C 1000.9 hPa NNW 11.1 km/h 18.5 km/h 82 % 0 mm
05:03 3.1 °C 0.3 °C 1000.9 hPa WNW 10 km/h 18.5 km/h 82 % 0 mm
05:08 3.1 °C 0.3 °C 1000.9 hPa NNW 9.7 km/h 16.7 km/h 82 % 0 mm
05:13 3.1 °C 0.3 °C 1001.2 hPa North 15.8 km/h 18.5 km/h 82 % 0 mm
05:18 3.1 °C 0.3 °C 1001.2 hPa North 10 km/h 16.7 km/h 82 % 0 mm
05:23 3.1 °C 0.3 °C 1001.2 hPa NNW 10.5 km/h 18.5 km/h 82 % 0 mm
05:29 3.1 °C 0.3 °C 1001.2 hPa NNW 10 km/h 14.8 km/h 82 % 0 mm
05:34 3.1 °C 0.3 °C 1001.6 hPa North 7.6 km/h 16.1 km/h 82 % 0 mm
05:39 3.1 °C 0.3 °C 1001.6 hPa North 11.4 km/h 14.5 km/h 82 % 0 mm
05:44 3.1 °C 0.3 °C 1001.6 hPa NW 6.4 km/h 13 km/h 82 % 0 mm
05:49 3.1 °C 0.3 °C 1001.9 hPa North 10.1 km/h 22.5 km/h 82 % 0 mm
05:54 3.1 °C 0.3 °C 1001.9 hPa NW 8 km/h 16.7 km/h 82 % 0 mm
05:59 3.1 °C 0.3 °C 1002.3 hPa NNW 9.7 km/h 18.5 km/h 82 % 0 mm
06:04 3.1 °C 0.3 °C 1002.3 hPa North 8.9 km/h 20.9 km/h 82 % 0 mm
06:09 3.2 °C 0.2 °C 1002.3 hPa North 9.3 km/h 22.2 km/h 81 % 0 mm
06:14 3.2 °C 0.2 °C 1002.3 hPa NW 5.5 km/h 11.3 km/h 81 % 0 mm
06:19 3.2 °C 0.2 °C 1002.6 hPa North 8.2 km/h 14.8 km/h 81 % 0 mm
06:24 3.2 °C 0.1 °C 1002.9 hPa North 13.4 km/h 18.5 km/h 80 % 0 mm
06:29 3.2 °C 0.3 °C 1002.9 hPa NW 7.1 km/h 19.3 km/h 81 % 0 mm
06:34 3.2 °C 0.3 °C 1002.9 hPa NNW 8.9 km/h 18.5 km/h 81 % 0 mm
06:39 3.2 °C 0.3 °C 1003.3 hPa NNE 12.9 km/h 18.5 km/h 81 % 0 mm
06:44 3.2 °C 0.1 °C 1003.3 hPa NE 18.5 km/h 32.2 km/h 80 % 0 mm
06:49 3.2 °C 0.1 °C 1003.3 hPa NW 11.1 km/h 18.5 km/h 80 % 0 mm
06:54 3.3 °C 0.2 °C 1003.3 hPa North 8.9 km/h 16.1 km/h 80 % 0 mm
06:59 3.3 °C 0.2 °C 1003.6 hPa NNE 13.2 km/h 17.7 km/h 80 % 0 mm
07:04 3.3 °C 0.2 °C 1003.6 hPa NNW 15.4 km/h 18.5 km/h 80 % 0 mm
07:09 3.3 °C 0.2 °C 1003.6 hPa NNE 14.3 km/h 24.1 km/h 80 % 0 mm
07:14 3.3 °C 0.1 °C 1003.9 hPa NNE 10.6 km/h 20.4 km/h 79 % 0 mm
07:19 3.4 °C 0.1 °C 1003.9 hPa North 11.9 km/h 31.5 km/h 79 % 0 mm
07:25 3.4 °C 0.1 °C 1004.3 hPa North 15.4 km/h 27.4 km/h 79 % 0 mm
07:30 3.4 °C 0.2 °C 1004.3 hPa North 19.5 km/h 31.5 km/h 79 % 0 mm
07:35 3.4 °C -0.1 °C 1004.3 hPa NNW 14.5 km/h 24.1 km/h 78 % 0 mm
07:40 3.5 °C 0.2 °C 1004.3 hPa North 10.9 km/h 22.2 km/h 79 % 0 mm
07:45 3.5 °C 0.2 °C 1004.3 hPa North 9.5 km/h 18.5 km/h 79 % 0 mm
07:50 3.6 °C 0.3 °C 1004.6 hPa NNE 15.6 km/h 31.5 km/h 79 % 0 mm
07:55 3.6 °C 0.1 °C 1004.6 hPa NNW 17.7 km/h 29.6 km/h 78 % 0 mm
08:00 3.6 °C 0.1 °C 1004.6 hPa NNW 14.5 km/h 22.2 km/h 78 % 0 mm
08:05 3.6 °C 0.1 °C 1004.6 hPa NNE 11.1 km/h 22.2 km/h 78 % 0 mm
08:10 3.7 °C 0.3 °C 1004.6 hPa NNE 9.3 km/h 14.8 km/h 79 % 0 mm
08:15 3.7 °C 0.2 °C 1004.6 hPa North 15.8 km/h 27.8 km/h 78 % 0 mm
08:20 3.8 °C 0.3 °C 1004.6 hPa ENE 15.3 km/h 17.7 km/h 78 % 0 mm
08:25 3.8 °C 0.3 °C 1004.6 hPa North 12.1 km/h 29.6 km/h 78 % 0 mm
08:30 3.8 °C 0.2 °C 1005 hPa North 10 km/h 18.5 km/h 77 % 0 mm
08:35 3.9 °C 0.3 °C 1004.6 hPa NNE 15.4 km/h 31.5 km/h 77 % 0 mm
08:40 4 °C 0.2 °C 1004.6 hPa NNE 17.7 km/h 29.6 km/h 76 % 0 mm
08:45 4.1 °C 0.3 °C 1005 hPa North 14.2 km/h 24.1 km/h 76 % 0 mm
08:51 4.3 °C 0.6 °C 1005 hPa NNW 14 km/h 20.4 km/h 77 % 0 mm
08:56 4.4 °C 0.5 °C 1005.3 hPa North 8 km/h 27.4 km/h 76 % 0 mm
09:01 4.5 °C 0.4 °C 1005.3 hPa North 12.7 km/h 33.8 km/h 75 % 0 mm
09:06 4.6 °C 0.4 °C 1005 hPa NW 14.5 km/h 25.9 km/h 74 % 0 mm
09:11 4.7 °C 0.5 °C 1005.3 hPa NNE 15.6 km/h 31.5 km/h 74 % 0 mm
09:16 4.9 °C 0.4 °C 1005.3 hPa North 9.8 km/h 22.2 km/h 73 % 0 mm
09:21 5.1 °C 0.8 °C 1005 hPa NNW 11.7 km/h 18.5 km/h 74 % 0 mm
09:26 5.3 °C 0.8 °C 1005 hPa NNW 10.8 km/h 16.7 km/h 73 % 0 mm
09:31 5.4 °C 1 °C 1005 hPa NW 12.7 km/h 24.1 km/h 73 % 0 mm
09:36 5.6 °C 0.9 °C 1005 hPa NW 13.7 km/h 22.2 km/h 72 % 0 mm
09:41 5.6 °C 0.7 °C 1005 hPa NNW 12.9 km/h 18.5 km/h 71 % 0 mm
09:46 5.5 °C 0.7 °C 1005.3 hPa NNW 12.1 km/h 17.7 km/h 71 % 0 mm
09:51 5.7 °C 1.2 °C 1005.3 hPa North 10.8 km/h 20.4 km/h 73 % 0 mm
09:56 5.8 °C 1.2 °C 1005.3 hPa NW 14 km/h 25.9 km/h 72 % 0 mm
10:02 6.2 °C 1.7 °C 1005.3 hPa NW 12.4 km/h 20.4 km/h 73 % 0 mm
10:07 6.4 °C 1.6 °C 1005 hPa NW 13.8 km/h 25.9 km/h 71 % 0 mm
10:12 6.4 °C 1.4 °C 1005 hPa NNW 11.6 km/h 22.2 km/h 70 % 0 mm
10:17 6.5 °C 1.4 °C 1005.3 hPa North 15.6 km/h 18.5 km/h 70 % 0 mm
10:22 6.7 °C 1.6 °C 1005 hPa NW 14.2 km/h 25.9 km/h 70 % 0 mm
10:27 6.9 °C 2 °C 1005 hPa NW 9.3 km/h 25.9 km/h 71 % 0 mm
10:32 6.8 °C 1.6 °C 1005 hPa NNW 15.9 km/h 24.1 km/h 69 % 0 mm
10:37 6.6 °C 1.3 °C 1005 hPa NNW 14.3 km/h 25.9 km/h 69 % 0 mm
10:42 6.5 °C 1.4 °C 1005 hPa NNE 9.3 km/h 16.7 km/h 70 % 0 mm
10:47 6.4 °C 1.4 °C 1004.6 hPa NNW 11.1 km/h 20.4 km/h 70 % 0 mm
10:52 6.7 °C 2 °C 1005 hPa NNW 6.8 km/h 14.8 km/h 72 % 0 mm
10:57 6.8 °C 1.7 °C 1005 hPa NW 16.1 km/h 27.8 km/h 70 % 0 mm
11:02 7.2 °C 2.1 °C 1005 hPa NNW 13.4 km/h 18.5 km/h 70 % 0 mm
11:07 7.2 °C 2.1 °C 1005 hPa NNW 8.7 km/h 16.7 km/h 70 % 0 mm
11:12 7.2 °C 2.1 °C 1005 hPa NNE 8.9 km/h 17.7 km/h 70 % 0 mm
11:17 7.3 °C 2.2 °C 1005 hPa ENE 15.3 km/h 22.2 km/h 70 % 0 mm
11:22 7.4 °C 2.3 °C 1005.3 hPa NW 11.4 km/h 20.4 km/h 70 % 0 mm
11:27 7.6 °C 2 °C 1005 hPa NNW 14.6 km/h 25.9 km/h 68 % 0 mm
11:32 7.4 °C 2.3 °C 1005 hPa NNW 8.4 km/h 14.8 km/h 70 % 0 mm
11:34 7.4 °C 2.1 °C 1005 hPa NNW 6.6 km/h 14.8 km/h 69 % 0 mm
11:39 7.5 °C 2.6 °C 1005 hPa NNE 9 km/h 18.5 km/h 71 % 0 mm
11:44 7.7 °C 2.8 °C 1005 hPa NNW 12.7 km/h 16.7 km/h 71 % 0 mm
11:49 7.9 °C 2.8 °C 1005 hPa NNW 9.7 km/h 19.3 km/h 70 % 0 mm
11:54 8 °C 2.7 °C 1005 hPa North 14.5 km/h 20.4 km/h 69 % 0 mm
11:59 8.1 °C 2.9 °C 1005 hPa North 10.1 km/h 18.5 km/h 70 % 0 mm
12:05 8.3 °C 3 °C 1005.3 hPa North 14.2 km/h 20.4 km/h 69 % 0 mm
12:10 8.3 °C 2.7 °C 1005.3 hPa NNE 12.9 km/h 24.1 km/h 68 % 0 mm
12:15 8.4 °C 3.3 °C 1005.3 hPa NE 13.5 km/h 19.3 km/h 70 % 0 mm
12:20 8.3 °C 2.8 °C 1005.3 hPa North 10.3 km/h 18.5 km/h 68 % 0 mm
12:25 8.1 °C 2.8 °C 1005.3 hPa NNW 8.9 km/h 22.2 km/h 69 % 0 mm
12:30 7.9 °C 2.6 °C 1005.3 hPa North 13.7 km/h 22.2 km/h 69 % 0 mm
12:35 7.7 °C 2.6 °C 1005.3 hPa North 12.7 km/h 20.4 km/h 70 % 0 mm
12:40 7.7 °C 2.6 °C 1005.6 hPa NNW 10.9 km/h 22.2 km/h 70 % 0 mm
12:45 7.6 °C 2.7 °C 1005.3 hPa North 9.2 km/h 18.5 km/h 71 % 0 mm
12:50 7.7 °C 2.8 °C 1005.3 hPa North 7.6 km/h 14.8 km/h 71 % 0 mm
12:55 7.9 °C 2.9 °C 1005.3 hPa North 9.5 km/h 14.8 km/h 71 % 0 mm
13:00 7.9 °C 2.6 °C 1005.3 hPa North 10 km/h 18.5 km/h 69 % 0 mm
13:05 7.9 °C 2.8 °C 1005.3 hPa North 11.7 km/h 14.8 km/h 70 % 0 mm
13:10 7.9 °C 2.9 °C 1005.3 hPa North 9.2 km/h 22.2 km/h 71 % 0 mm
13:15 7.7 °C 2.6 °C 1005.3 hPa North 7.9 km/h 18.5 km/h 70 % 0 mm
13:20 7.6 °C 2.5 °C 1005.3 hPa North 6.9 km/h 11.1 km/h 70 % 0 mm
13:25 7.4 °C 2.3 °C 1005.3 hPa North 8.5 km/h 20.4 km/h 70 % 0 mm
13:31 7.3 °C 2.2 °C 1005.3 hPa North 12.9 km/h 22.5 km/h 70 % 0 mm
13:36 7.2 °C 2.3 °C 1005.6 hPa North 8 km/h 24.1 km/h 71 % 0 mm
13:41 7 °C 2.1 °C 1005.6 hPa North 9.7 km/h 24.1 km/h 71 % 0 mm
13:46 6.9 °C 2.2 °C 1005.6 hPa North 9.7 km/h 20.9 km/h 72 % 0 mm
13:51 6.7 °C 2.1 °C 1005.6 hPa North 8 km/h 22.5 km/h 72 % 0 mm
13:56 6.6 °C 1.9 °C 1005.6 hPa North 12.9 km/h 22.5 km/h 72 % 0 mm
14:00 6.4 °C 1.8 °C 1005.6 hPa North 10 km/h 20.4 km/h 72 % 0 mm
14:06 6.4 °C 1.9 °C 1006 hPa NNW 12.9 km/h 29 km/h 73 % 0 mm
14:11 6.3 °C 1.8 °C 1006 hPa NNW 9.7 km/h 19.3 km/h 73 % 0 mm
14:16 6.3 °C 2 °C 1005.6 hPa North 8.7 km/h 11.3 km/h 74 % 0 mm
14:21 6.3 °C 2 °C 1006 hPa NNW 11.3 km/h 24.1 km/h 74 % 0 mm
14:26 6.3 °C 1.9 °C 1006 hPa NNW 9.7 km/h 22.5 km/h 74 % 0 mm
14:31 6.3 °C 1.8 °C 1006 hPa NNW 11.3 km/h 25.7 km/h 73 % 0 mm
14:36 6.3 °C 1.8 °C 1006 hPa North 4.8 km/h 29 km/h 73 % 0 mm
14:41 6.3 °C 2 °C 1006 hPa North 12.9 km/h 22.5 km/h 74 % 0 mm
14:46 6.3 °C 1.8 °C 1006 hPa North 11.3 km/h 29 km/h 73 % 0 mm
14:51 6.3 °C 1.8 °C 1006 hPa North 12.9 km/h 32.2 km/h 73 % 0 mm
14:56 6.3 °C 1.8 °C 1006 hPa North 11.3 km/h 25.7 km/h 73 % 0 mm
15:01 6.3 °C 1.8 °C 1006.3 hPa NNE 14.2 km/h 24.1 km/h 73 % 0 mm
15:06 6.2 °C 1.7 °C 1006.3 hPa NNE 12.6 km/h 24.1 km/h 73 % 0 mm
15:11 6.1 °C 1.6 °C 1006.3 hPa NNE 15.3 km/h 29.6 km/h 73 % 0 mm
15:16 6.1 °C 1.6 °C 1006.3 hPa North 10.1 km/h 18.5 km/h 73 % 0 mm
15:21 6.1 °C 1.8 °C 1006.3 hPa North 13.4 km/h 22.2 km/h 74 % 0 mm
15:26 6.1 °C 1.6 °C 1006.7 hPa NE 11.4 km/h 19.3 km/h 73 % 0 mm
15:31 6.1 °C 1.6 °C 1006.7 hPa NNE 12.1 km/h 24.1 km/h 73 % 0 mm
15:36 6.1 °C 1.6 °C 1006.7 hPa NNE 14.6 km/h 22.2 km/h 73 % 0 mm
15:41 6.1 °C 1.6 °C 1006.7 hPa North 12.4 km/h 27.8 km/h 73 % 0 mm
15:46 6.1 °C 1.6 °C 1007 hPa North 14.8 km/h 20.9 km/h 73 % 0 mm
15:52 6.1 °C 1.8 °C 1006.7 hPa NNE 13.5 km/h 24.1 km/h 74 % 0 mm
15:57 6.1 °C 1.6 °C 1007 hPa NNE 17.7 km/h 27.8 km/h 73 % 0 mm
16:02 6.1 °C 1.6 °C 1006.7 hPa North 21.9 km/h 37 km/h 73 % 0 mm
16:07 6 °C 1.5 °C 1007 hPa NNW 17.1 km/h 27.8 km/h 73 % 0 mm
16:12 6 °C 1.7 °C 1007 hPa North 14.5 km/h 29.6 km/h 74 % 0 mm
16:17 5.9 °C 1.4 °C 1007 hPa North 17.2 km/h 33.3 km/h 73 % 0 mm
16:22 5.9 °C 1.4 °C 1007 hPa NNE 13.2 km/h 19.3 km/h 73 % 0 mm
16:27 5.9 °C 1.6 °C 1007 hPa North 13.5 km/h 20.4 km/h 74 % 0 mm
16:32 5.8 °C 1.6 °C 1007.3 hPa NNE 13 km/h 20.4 km/h 74 % 0 mm
16:37 5.8 °C 1.7 °C 1007.3 hPa NNE 14.8 km/h 25.7 km/h 75 % 0 mm
16:42 5.8 °C 1.7 °C 1007.3 hPa North 14.8 km/h 20.9 km/h 75 % 0 mm
16:47 5.7 °C 1.6 °C 1007.3 hPa North 9 km/h 22.2 km/h 75 % 0 mm
16:52 5.7 °C 1.6 °C 1007.3 hPa NNE 15.3 km/h 18.5 km/h 75 % 0 mm
16:57 5.7 °C 1.6 °C 1007.7 hPa North 13.8 km/h 22.5 km/h 75 % 0 mm
17:02 5.7 °C 1.6 °C 1007.7 hPa NNE 10.5 km/h 18.5 km/h 75 % 0 mm
17:07 5.7 °C 1.6 °C 1007.7 hPa North 12.1 km/h 22.2 km/h 75 % 0 mm
17:12 5.7 °C 1.3 °C 1007.7 hPa North 14.8 km/h 24.1 km/h 73 % 0 mm
17:17 5.7 °C 1.4 °C 1007.7 hPa NNE 14.6 km/h 24.1 km/h 74 % 0 mm
17:22 5.8 °C 1.3 °C 1007.7 hPa NNE 20 km/h 35.2 km/h 73 % 0 mm
17:27 5.7 °C 1.3 °C 1007.7 hPa North 12.1 km/h 20.4 km/h 73 % 0 mm
17:33 5.7 °C 1.2 °C 1007.7 hPa North 16.6 km/h 24.1 km/h 73 % 0 mm
17:38 5.6 °C 1.2 °C 1007.7 hPa NNW 19.6 km/h 20.9 km/h 73 % 0 mm
17:43 5.6 °C 1.1 °C 1008 hPa North 20.1 km/h 35.2 km/h 73 % 0 mm
17:48 5.6 °C 1.1 °C 1008 hPa North 14.2 km/h 27.8 km/h 73 % 0 mm
17:53 5.6 °C 0.9 °C 1008.4 hPa NE 19.3 km/h 29.6 km/h 72 % 0 mm
17:58 5.6 °C 1.2 °C 1008.4 hPa NNE 16.1 km/h 24.1 km/h 73 % 0 mm
18:03 5.6 °C 1.2 °C 1008.4 hPa NNE 10.5 km/h 18.5 km/h 73 % 0 mm
18:08 5.6 °C 1.3 °C 1008.4 hPa North 12.9 km/h 18.5 km/h 74 % 0 mm
18:13 5.6 °C 1.3 °C 1008.4 hPa NNW 13.4 km/h 22.2 km/h 74 % 0 mm
18:18 5.5 °C 1.1 °C 1008.4 hPa North 10.5 km/h 16.7 km/h 73 % 0 mm
18:23 5.5 °C 1.1 °C 1008.7 hPa NNE 14.8 km/h 24.1 km/h 73 % 0 mm
18:28 5.5 °C 1.1 °C 1008.7 hPa North 12.4 km/h 24.1 km/h 73 % 0 mm
18:33 5.5 °C 1.2 °C 1008.7 hPa NNW 9.5 km/h 18.5 km/h 74 % 0 mm
18:38 5.4 °C 1.2 °C 1008.7 hPa North 8.7 km/h 18.5 km/h 74 % 0 mm
18:43 5.4 °C 1.2 °C 1008.7 hPa NW 11.4 km/h 20.4 km/h 74 % 0 mm
18:48 5.4 °C 1.2 °C 1009 hPa North 13 km/h 22.2 km/h 74 % 0 mm
18:53 5.4 °C 1 °C 1008.7 hPa NNE 15.9 km/h 29.6 km/h 73 % 0 mm
18:58 5.4 °C 1.1 °C 1009 hPa NNE 13.8 km/h 22.2 km/h 74 % 0 mm
19:03 5.4 °C 0.9 °C 1009 hPa North 16.6 km/h 27.8 km/h 73 % 0 mm
19:08 5.3 °C 0.9 °C 1009 hPa NNE 16.3 km/h 22.2 km/h 73 % 0 mm
19:14 5.3 °C 0.9 °C 1009 hPa NNE 14.3 km/h 20.9 km/h 73 % 0 mm
19:19 5.3 °C 1.1 °C 1009 hPa NE 15.9 km/h 27.8 km/h 74 % 0 mm
19:21 5.3 °C 0.8 °C 1009 hPa North 20.4 km/h 27.8 km/h 73 % 0 mm
19:26 5.3 °C 1 °C 1009 hPa North 14.6 km/h 20.9 km/h 74 % 0 mm
19:31 5.3 °C 1 °C 1009 hPa NW 14.2 km/h 22.5 km/h 74 % 0 mm
19:36 5.2 °C 0.8 °C 1009 hPa North 10.8 km/h 22.2 km/h 73 % 0 mm
19:41 5.2 °C 1.1 °C 1009.4 hPa NNE 16.4 km/h 25.7 km/h 75 % 0 mm
19:46 5.2 °C 0.9 °C 1009.4 hPa North 14 km/h 25.9 km/h 74 % 0 mm
19:51 5.1 °C 0.8 °C 1009.4 hPa North 15.9 km/h 29.6 km/h 74 % 0 mm
19:56 5.1 °C 0.8 °C 1009.4 hPa NNE 13.4 km/h 20.4 km/h 74 % 0 mm
20:01 5.1 °C 0.8 °C 1009.4 hPa NE 16.6 km/h 24.1 km/h 74 % 0 mm
20:06 5.1 °C 0.8 °C 1009.7 hPa NE 8.7 km/h 18.5 km/h 74 % 0 mm
20:11 5 °C 0.7 °C 1009.4 hPa North 12.1 km/h 20.4 km/h 74 % 0 mm
20:16 5 °C 0.7 °C 1009.7 hPa NNE 15.3 km/h 22.5 km/h 74 % 0 mm
20:21 4.9 °C 0.7 °C 1009.7 hPa NNE 17.4 km/h 24.1 km/h 74 % 0 mm
20:26 4.9 °C 0.7 °C 1009.7 hPa North 16.6 km/h 27.8 km/h 74 % 0 mm
20:31 4.9 °C 0.7 °C 1010 hPa North 15 km/h 24.1 km/h 74 % 0 mm
20:36 4.9 °C 0.7 °C 1010 hPa NE 16.7 km/h 19.3 km/h 74 % 0 mm
20:41 4.8 °C 0.8 °C 1009.7 hPa NNE 12.7 km/h 16.7 km/h 75 % 0 mm
20:47 4.8 °C 0.6 °C 1010 hPa North 12.9 km/h 25.9 km/h 74 % 0 mm
20:52 4.8 °C 0.7 °C 1010 hPa North 13.4 km/h 20.4 km/h 75 % 0 mm
20:57 4.7 °C 0.5 °C 1010 hPa NNE 12.2 km/h 25.9 km/h 74 % 0 mm
21:02 4.7 °C 0.7 °C 1010 hPa North 11.4 km/h 18.5 km/h 75 % 0 mm
21:07 4.7 °C 0.6 °C 1009.7 hPa North 9.3 km/h 18.5 km/h 75 % 0 mm
21:12 4.6 °C 0.6 °C 1010 hPa NNW 11.7 km/h 20.4 km/h 75 % 0 mm
21:17 4.6 °C 0.7 °C 1009.7 hPa NNE 14.3 km/h 24.1 km/h 76 % 0 mm
21:22 4.6 °C 0.7 °C 1010 hPa North 13.4 km/h 24.1 km/h 76 % 0 mm
21:27 4.6 °C 0.7 °C 1010 hPa NNE 15.1 km/h 24.1 km/h 76 % 0 mm
21:32 4.6 °C 0.7 °C 1010 hPa North 10 km/h 14.8 km/h 76 % 0 mm
21:37 4.6 °C 0.7 °C 1009.7 hPa NNE 13.4 km/h 22.2 km/h 76 % 0 mm
21:42 4.6 °C 0.7 °C 1009.7 hPa NE 11.1 km/h 18.5 km/h 76 % 0 mm
21:47 4.6 °C 0.9 °C 1009.7 hPa North 12.4 km/h 18.5 km/h 77 % 0 mm
21:52 4.5 °C 0.6 °C 1009.7 hPa North 12.9 km/h 18.5 km/h 76 % 0 mm
21:57 4.6 °C 0.7 °C 1009.7 hPa NNE 14.2 km/h 22.5 km/h 76 % 0 mm
22:02 4.6 °C 0.7 °C 1009.7 hPa North 14.3 km/h 27.8 km/h 76 % 0 mm
22:07 4.6 °C 0.7 °C 1009.7 hPa North 13.5 km/h 20.4 km/h 76 % 0 mm
22:12 4.6 °C 0.7 °C 1009.7 hPa NE 12.1 km/h 20.9 km/h 76 % 0 mm
22:17 4.6 °C 0.7 °C 1009.7 hPa NNE 10.5 km/h 18.5 km/h 76 % 0 mm
22:23 4.5 °C 0.8 °C 1009.7 hPa North 10.6 km/h 16.7 km/h 77 % 0 mm
22:28 4.5 °C 0.8 °C 1009.7 hPa North 13.4 km/h 16.7 km/h 77 % 0 mm
22:33 4.5 °C 0.8 °C 1009.7 hPa NNE 9.7 km/h 14.8 km/h 77 % 0 mm
22:38 4.4 °C 0.8 °C 1009.7 hPa North 11.9 km/h 19.3 km/h 77 % 0 mm
22:43 4.4 °C 0.9 °C 1009.7 hPa NNE 9.5 km/h 16.7 km/h 78 % 0 mm
22:48 4.4 °C 0.9 °C 1010 hPa NNE 12.9 km/h 20.4 km/h 78 % 0 mm
22:53 4.4 °C 0.9 °C 1009.7 hPa North 12.9 km/h 20.4 km/h 78 % 0 mm
22:58 4.4 °C 0.9 °C 1009.7 hPa NNE 11.9 km/h 18.5 km/h 78 % 0 mm
23:03 4.4 °C 0.9 °C 1009.7 hPa North 10.3 km/h 20.4 km/h 78 % 0 mm
23:08 4.4 °C 0.8 °C 1009.7 hPa NNE 10.9 km/h 18.5 km/h 77 % 0 mm
23:13 4.4 °C 0.8 °C 1010 hPa North 11.1 km/h 16.7 km/h 77 % 0 mm
23:18 4.4 °C 0.8 °C 1010 hPa North 10.9 km/h 22.2 km/h 77 % 0 mm
23:23 4.4 °C 0.9 °C 1009.7 hPa NNE 12.4 km/h 22.2 km/h 78 % 0 mm
23:28 4.4 °C 0.9 °C 1009.7 hPa North 11.6 km/h 18.5 km/h 78 % 0 mm
23:33 4.4 °C 0.9 °C 1010 hPa NNE 13 km/h 19.3 km/h 78 % 0 mm
23:38 4.4 °C 0.9 °C 1010 hPa NNE 11.1 km/h 16.7 km/h 78 % 0 mm
23:44 4.4 °C 0.9 °C 1010 hPa NNE 8.9 km/h 22.2 km/h 78 % 0 mm
23:49 4.4 °C 0.9 °C 1010 hPa NNE 10.1 km/h 22.2 km/h 78 % 0 mm
23:54 4.4 °C 0.9 °C 1009.7 hPa NNW 11.9 km/h 16.7 km/h 78 % 0 mm
23:59 4.4 °C 0.9 °C 1009.7 hPa NNE 12.6 km/h 25.9 km/h 78 % 0 mm
Crab Meadow Weather
Compliments of Weather Underground - 3 mb

Script developed by  Jim McMurry - jmcmurry@mwt.net Adapted for the template by  Wim van der Kuil - Leuven-Template.eu

Recycling: Americans use 2,500,000 plastic bottles every hour! Most of them are thrown away!